Waarnemingen

Advertentie
Mijn weer
Görlitz, Duitsland (10499): temperatuur & dauwpunt: 14.04.2018 22:00:00 - 20.04.2018 22:00:00 (CEST)Görlitz, Duitsland (10499): temperatuur 5cm & temperatuur -5cm: 14.04.2018 22:00:00 - 20.04.2018 22:00:00 (CEST)Görlitz, Duitsland (10499): temperatuur -20cm & temperatuur -100cm: 14.04.2018 22:00:00 - 20.04.2018 22:00:00 (CEST)Görlitz, Duitsland (10499): windsnelheid & windstoten: 14.04.2018 22:00:00 - 20.04.2018 22:00:00 (CEST)Görlitz, Duitsland (10499): windrichting: 14.04.2018 22:00:00 - 20.04.2018 22:00:00 (CEST)Görlitz, Duitsland (10499): luchtdruk: 14.04.2018 22:00:00 - 20.04.2018 22:00:00 (CEST)Görlitz, Duitsland (10499): zicht: 14.04.2018 22:00:00 - 20.04.2018 22:00:00 (CEST)Görlitz, Duitsland (10499): Zonneschijnduur: 14.04.2018 22:00:00 - 20.04.2018 22:00:00 (CEST)Görlitz, Duitsland (10499): neerslag: 14.04.2018 22:00:00 - 20.04.2018 22:00:00 (CEST)
Datum & Tijd tt [°C] td [°C] tt 5cm [°C] tt -5cm [°C] tt -20cm [°C] tt -100cm [°C] ff [km/u] ff [kn] fx [km/u] fx [kn] dd ppp [hPa] vv [km] sd [min] rr [mm]
20.04.2018 22:00:00 18,7 9,1 14,3 17,9 16,5 9,8 13 7 22 12 ZZW 1020,5 45 0 0,0
20.04.2018 21:00:00 19,6 10,1 15,8 19,0 16,6 9,7 15 8 26 14 Z 1020,6 50 0 0,0
20.04.2018 20:00:00 20,6 10,2 17,5 20,1 16,5 9,7 16 9 23 12 ZZW 1020,6 60 42 0,0
20.04.2018 19:00:00 22,5 13,7 21,1 20,9 16,2 9,7 11 6 22 12 ZZW 1020,8 65 60 0,0
20.04.2018 18:00:00 24,3 13,2 24,8 21,3 15,8 9,7 16 8 22 12 ZZW 1021,4 65 60 0,0
20.04.2018 17:00:00 25,2 13,3 27,4 21,2 15,3 9,7 13 7 21 11 ZZW 1022,0 60 60 0,0
20.04.2018 16:00:00 25,1 13,7 28,8 20,6 14,8 9,7 12 7 23 12 ZW 1022,6 60 60 0,0
20.04.2018 15:00:00 24,7 13,0 29,6 19,6 14,3 9,7 13 7 22 12 ZW 1023,5 55 60 0,0
20.04.2018 14:00:00 23,9 13,8 30,1 18,4 13,8 9,6 13 7 22 12 WZW 1024,4 55 60 0,0
20.04.2018 13:00:00 22,5 12,5 29,4 17,1 13,4 9,6 13 7 24 13 WZW 1025,2 55 60 0,0
20.04.2018 12:00:00 21,5 14,2 28,0 15,9 13,1 9,6 14 7 25 13 WZW 1025,6 55 60 0,0
20.04.2018 11:00:00 20,3 14,3 24,7 14,8 12,9 9,6 16 9 25 13 ZW 1026,1 55 60 0,0
20.04.2018 10:00:00 18,9 13,3 21,8 13,6 12,8 9,6 12 6 22 12 Z 1026,3 50 60 0,0
20.04.2018 09:00:00 17,7 12,9 20,1 12,5 12,9 9,5 6 4 14 8 Z 1026,5 55 60 0,0
20.04.2018 08:00:00 14,3 11,0 15,8 11,9 13,1 9,5 4 2 7 4 W 1027,0 55 60 0,0
20.04.2018 07:00:00 10,0 9,9 10,0 11,9 13,4 9,5 6 4 10 5 Z 1027,5 50 34 0,0
20.04.2018 06:00:00 9,0 9,0 6,9 12,4 13,6 9,5 8 4 10 5 ZZO 1027,6 20 0 0,0
20.04.2018 05:00:00 10,1 10,1 8,3 12,8 13,9 9,5 8 4 10 5 ZZO 1027,9 18 0 0,0
20.04.2018 04:00:00 11,5 11,5 8,2 13,2 14,1 9,5 4 2 5 3 ZO 1028,1 18 0 0,0
20.04.2018 03:00:00 11,7 11,4 8,4 13,7 14,4 9,5 5 3 6 3 ONO 1028,4 18 0 0,0
20.04.2018 02:00:00 11,9 11,7 10,0 14,2 14,6 9,4 3 2 6 3 W 1028,7 18 0 0,0
20.04.2018 01:00:00 13,2 11,4 9,7 14,7 14,8 9,4 3 1 5 3 N 1028,9 20 0 0,0
20.04.2018 00:00:00 15,8 12,0 11,4 15,3 15,1 9,5 6 3 9 5 ONO 1028,8 25 0 0,0
19.04.2018 23:00:00 15,1 11,9 11,6 16,0 15,3 9,4 6 4 13 7 NW 1029,2 27 0 0,0
19.04.2018 22:00:00 18,1 12,2 15,7 16,7 15,4 9,4 7 4 15 8 ONO 1029,0 40 0 0,0
19.04.2018 21:00:00 17,4 12,1 14,3 17,7 15,5 9,5 11 6 14 7 NNO 1028,9 45 0 0,0
19.04.2018 20:00:00 19,5 13,1 17,3 18,6 15,4 9,4 10 5 12 6 N 1028,4 60 32 0,0
19.04.2018 19:00:00 22,6 12,0 20,9 19,3 15,1 9,4 5 3 9 5 WNW 1028,2 55 60 0,0
19.04.2018 18:00:00 23,2 10,9 23,2 19,7 14,8 9,4 4 2 11 6 WNW 1028,5 45 60 0,0
19.04.2018 17:00:00 23,3 11,2 24,6 19,7 14,4 9,4 5 3 10 6 NNW 1028,8 45 60 0,0
19.04.2018 16:00:00 22,5 11,5 26,6 19,4 13,9 9,4 7 4 12 7 W 1029,4 35 60 0,0
19.04.2018 15:00:00 22,8 11,5 25,8 18,6 13,4 9,4 4 2 14 8 ONO 1030,1 27 60 0,0
19.04.2018 14:00:00 21,9 11,2 24,9 17,7 12,8 9,4 10 5 18 10 NO 1030,6 27 60 0,0
19.04.2018 13:00:00 21,3 9,2 26,1 16,5 12,4 9,3 6 3 14 8 NNO 1031,3 25 60 0,0
19.04.2018 12:00:00 20,1 10,0 25,8 15,1 12,0 9,3 5 3 9 5 N 1031,6 25 60 0,0
19.04.2018 11:00:00 19,1 10,4 23,7 13,5 11,7 9,3 4 2 6 4 NNO 1031,6 25 60 0,0
19.04.2018 10:00:00 16,9 9,6 22,5 12,0 11,7 9,3 2 1 6 3 WZW 1031,8 27 60 0,0
19.04.2018 09:00:00 14,8 7,6 16,7 10,9 11,8 9,3 2 1 5 3 Z 1032,0 27 60 0,0
19.04.2018 08:00:00 10,8 7,7 11,2 10,5 12,0 9,3 3 2 8 5 O 1032,3 30 60 0,0
19.04.2018 07:00:00 7,7 7,0 7,1 10,6 12,2 9,3 5 3 6 3 ZZO 1032,4 30 13 0,0
19.04.2018 06:00:00 7,4 7,2 5,5 10,9 12,5 9,3 3 2 5 3 ZZW 1032,2 16 0 0,0
19.04.2018 05:00:00 7,8 7,5 5,9 11,3 12,7 9,2 4 2 5 3 ZZO 1032,3 15 0 0,0
19.04.2018 04:00:00 8,4 7,7 6,4 11,7 13,0 9,2 5 3 6 4 Z 1032,6 17 0 0,0
19.04.2018 03:00:00 9,3 8,1 6,9 12,2 13,2 9,2 5 3 6 4 Z 1032,6 18 0 0,0
19.04.2018 02:00:00 9,7 8,5 6,9 12,7 13,5 9,2 3 2 5 3 Z 1032,8 18 0 0,0
19.04.2018 01:00:00 10,6 8,7 7,4 13,2 13,7 9,2 3 2 6 4 Z 1033,0 20 0 0,0
19.04.2018 00:00:00 11,8 9,3 7,8 13,8 14,0 9,2 2 1 5 3 Z 1032,6 20 0 0,0
18.04.2018 23:00:00 12,7 9,2 8,8 14,5 14,2 9,2 3 2 9 5 Z 1032,4 20 0 0,0
18.04.2018 22:00:00 14,9 8,5 10,7 15,4 14,3 9,2 7 4 8 5 WZW 1032,0 25 0 0,0
18.04.2018 21:00:00 16,5 8,8 11,8 16,3 14,4 9,2 6 4 8 4 WZW 1031,7 30 0 0,0
18.04.2018 20:00:00 17,5 9,1 13,3 17,3 14,3 9,2 5 3 9 5 WZW 1031,3 30 37 0,0
18.04.2018 19:00:00 20,3 7,8 18,2 17,9 14,1 9,2 6 3 10 6 W 1031,2 30 60 0,0
18.04.2018 18:00:00 21,2 7,2 20,9 18,3 13,8 9,2 3 2 13 7 WNW 1031,3 30 60 0,0
18.04.2018 17:00:00 21,1 9,0 22,9 18,3 13,3 9,2 6 4 16 9 W 1031,4 30 60 0,0
18.04.2018 16:00:00 20,5 7,6 22,6 18,0 12,9 9,2 5 3 16 9 WNW 1032,0 35 60 0,0
18.04.2018 15:00:00 19,8 8,3 24,0 17,4 12,3 9,2 9 5 14 7 NNW 1032,2 35 60 0,0
18.04.2018 14:00:00 19,4 6,5 25,3 16,4 11,8 9,2 8 5 13 7 W 1032,5 35 60 0,0
18.04.2018 13:00:00 19,1 8,8 23,9 15,2 11,3 9,2 6 3 11 6 N 1032,8 35 60 0,0
18.04.2018 12:00:00 18,6 9,3 22,9 13,8 10,9 9,2 5 3 11 6 NO 1033,0 30 60 0,0
18.04.2018 11:00:00 17,0 9,4 23,1 12,2 10,6 9,2 6 3 12 6 W 1033,0 27 60 0,0
18.04.2018 10:00:00 15,8 9,6 19,8 10,7 10,5 9,2 3 2 7 4 ZZW 1032,9 25 60 0,0
18.04.2018 09:00:00 12,7 9,1 14,4 9,5 10,6 9,2 3 2 5 3 ZZO 1032,9 20 60 0,0
18.04.2018 08:00:00 9,4 8,3 10,3 9,0 10,8 9,2 4 2 9 5 ZZO 1033,0 20 60 0,0
18.04.2018 07:00:00 6,1 6,1 5,8 9,0 11,0 9,2 6 3 7 4 Z 1032,7 19 19 0,0
18.04.2018 06:00:00 6,1 6,1 3,8 9,4 11,3 9,2 3 2 5 3 Z 1032,3 12 0 0,0
18.04.2018 05:00:00 6,4 6,4 3,6 9,7 11,5 9,1 4 2 11 6 ZW 1032,2 5 0 0,0
18.04.2018 04:00:00 6,7 6,7 5,2 10,1 11,8 9,1 6 3 7 4 ZZO 1031,7 10 0 0,0
18.04.2018 03:00:00 7,2 7,2 5,0 10,6 12,0 9,1 5 3 10 5 Z 1031,5 12 0 0,0
18.04.2018 02:00:00 7,1 7,1 5,1 11,0 12,2 9,1 4 2 8 5 ZZW 1031,4 12 0 0,0
18.04.2018 01:00:00 8,4 8,4 6,7 11,5 12,5 9,1 6 4 7 4 ZZO 1030,7 12 0 0,0
18.04.2018 00:00:00 9,2 8,3 6,0 12,1 12,7 9,1 6 3 9 5 ZW 1030,3 13 0 0,0
17.04.2018 23:00:00 10,8 9,1 7,8 12,6 12,9 9,1 7 4 9 5 WZW 1029,7 15 0 0,0
17.04.2018 22:00:00 11,1 9,4 8,2 13,3 13,0 9,1 6 3 8 4 WZW 1029,4 15 0 0,0
17.04.2018 21:00:00 12,8 9,8 8,8 14,1 13,1 9,1 5 3 7 4 W 1028,6 18 0 0,0
17.04.2018 20:00:00 13,9 10,1 10,6 14,8 13,0 9,1 5 3 6 3 WZW 1027,7 20 11 0,0
17.04.2018 19:00:00 14,7 10,4 13,1 15,4 12,9 9,1 3 2 8 5 ZW 1027,3 20 10 0,0
17.04.2018 18:00:00 15,3 10,1 15,4 15,7 12,6 9,1 4 2 11 6 WZW 1026,9 25 44 0,0
17.04.2018 17:00:00 15,2 10,6 16,1 15,7 12,3 9,1 6 4 14 8 WZW 1027,0 22 16 0,0
17.04.2018 16:00:00 16,5 9,2 19,5 15,2 11,9 9,1 6 4 18 10 W 1026,7 14 56 0,0
17.04.2018 15:00:00 15,8 10,3 21,0 14,1 11,7 9,1 6 3 16 9 NNW 1026,8 13 39 0,0
17.04.2018 14:00:00 13,7 9,9 17,6 13,0 11,5 9,1 5 3 16 9 NW 1027,0 8 9 0,0
17.04.2018 13:00:00 12,1 10,0 14,7 12,3 11,4 9,1 13 7 24 13 NW 1026,8 8 2 0,0
17.04.2018 12:00:00 11,8 9,9 13,3 12,0 11,4 9,1 14 8 23 12 NNW 1026,9 7 0 0,0
17.04.2018 11:00:00 11,5 10,2 12,5 11,8 11,3 9,1 12 6 22 12 WNW 1026,3 6 0 0,0
17.04.2018 10:00:00 11,6 10,1 12,9 11,5 11,3 9,1 14 7 20 11 WNW 1025,3 6 1 0,0
17.04.2018 09:00:00 11,3 10,1 12,3 11,2 11,3 9,1 12 6 23 12 NW 1024,3 5 0 0,0
17.04.2018 08:00:00 10,8 10,0 11,2 11,1 11,4 9,1 12 7 22 12 WNW 1023,1 4,2 0 0,0
17.04.2018 07:00:00 10,7 10,4 10,5 11,1 11,5 9,1 10 6 28 15 WNW 1022,3 2,7 0 0,0
17.04.2018 06:00:00 10,9 10,7 10,4 11,1 11,6 9,1 10 5 19 11 WNW 1021,5 2,0 0 0,0
17.04.2018 05:00:00 10,6 10,6 9,4 11,3 11,7 9,0 8 4 22 12 W 1020,8 3,0 0 0,0
17.04.2018 04:00:00 11,2 10,8 10,4 11,4 11,7 9,0 11 6 25 13 W 1020,4 8 0 0,0
17.04.2018 03:00:00 11,5 10,8 10,7 11,5 11,8 9,0 13 7 26 14 W 1020,0 10 0 0,0
17.04.2018 02:00:00 11,3 11,0 10,7 11,6 11,9 9,0 11 6 20 11 W 1019,6 8 0 0,0
17.04.2018 01:00:00 11,2 11,1 10,6 11,8 12,0 9,0 6 3 16 9 W 1018,9 3,0 0 0,0
17.04.2018 00:00:00 11,4 11,4 10,8 11,9 12,1 9,0 9 5 18 10 WNW 1018,1 3,0 0 0,0
16.04.2018 23:00:00 11,3 11,3 10,8 12,0 12,1 9,0 9 5 19 10 WNW 1017,5 5 0 0,0
16.04.2018 22:00:00 11,2 10,9 10,7 12,2 12,2 9,0 10 6 24 13 WNW 1017,0 4,0 0 0,1
16.04.2018 21:00:00 11,4 11,2 11,1 12,4 12,3 9,0 16 8 27 15 WNW 1016,4 3,5 0 0,0
16.04.2018 20:00:00 12,0 12,0 11,9 12,6 12,3 9,0 11 6 25 13 NW 1015,1 3,9 0 0,2
16.04.2018 19:00:00 12,1 12,1 12,1 12,6 12,3 9,0 14 8 26 14 NW 1014,4 3,8 0 1,0
16.04.2018 18:00:00 11,9 11,9 12,1 12,7 12,4 8,9 15 8 27 15 NW 1013,9 3,5 0 4,7
16.04.2018 17:00:00 12,0 12,0 12,0 12,8 12,4 8,9 12 7 23 13 NW 1012,9 3,5 0 0,4
16.04.2018 16:00:00 12,1 12,1 12,5 12,9 12,5 8,9 10 5 16 9 WNW 1012,7 4,3 0 2,8
16.04.2018 15:00:00 12,1 12,1 12,4 13,0 12,5 8,9 9 5 16 9 WNW 1012,5 2,5 0 1,3
16.04.2018 14:00:00 12,3 12,3 12,8 13,0 12,5 8,9 9 5 16 9 NW 1012,2 3,0 0 1,3
16.04.2018 13:00:00 12,1 12,1 12,8 12,9 12,6 8,9 11 6 19 10 NW 1012,2 2,0 0 0,9
16.04.2018 12:00:00 12,3 12,3 12,5 13,0 12,6 8,9 11 6 23 12 WNW 1012,0 2,8 0 0,0
16.04.2018 11:00:00 12,5 12,5 12,4 13,1 12,6 8,9 14 7 26 14 WNW 1011,8 6 0 0,0
16.04.2018 10:00:00 14,5 14,5 14,4 13,1 12,6 8,9 9 5 27 15 W 1011,0 9 0 1,2
16.04.2018 09:00:00 14,9 14,0 14,0 13,0 12,7 8,8 13 7 19 10 Z 1010,7 7 0 0,2
16.04.2018 08:00:00 14,1 13,9 13,6 13,0 12,8 8,8 5 3 10 6 ZZO 1010,4 13 0 0,1
16.04.2018 07:00:00 13,0 13,0 12,7 13,1 12,8 8,8 2 1 5 3 WZW 1010,2 13 0 0,1
16.04.2018 06:00:00 13,2 13,2 12,7 13,2 12,9 8,8 5 3 9 5 NNO 1009,9 10 0 0,3
16.04.2018 05:00:00 13,4 12,9 12,6 13,4 13,1 8,9 6 3 10 5 NO 1010,0 12 0 0,8
16.04.2018 04:00:00 13,9 13,3 12,9 13,5 13,2 8,8 4 2 7 4 OZO 1010,1 12 0 0,5
16.04.2018 03:00:00 15,0 11,5 13,6 13,6 13,3 8,8 7 4 9 5 W 1010,2 15 0 0,0
16.04.2018 02:00:00 15,7 11,7 13,8 13,7 13,4 8,8 2 1 15 8 O 1009,9 15 0 0,0
16.04.2018 01:00:00 13,2 11,5 12,3 14,0 13,6 8,8 5 3 10 5 WNW 1010,4 15 0 0,0
16.04.2018 00:00:00 14,1 11,6 12,4 14,3 13,7 8,8 5 3 8 5 WZW 1010,7 15 0 0,0
15.04.2018 23:00:00 13,5 11,3 11,9 14,7 13,8 8,8 6 3 8 4 NW 1010,7 20 0 0,0
15.04.2018 22:00:00 15,9 11,9 13,2 15,3 13,9 8,8 5 3 6 3 NO 1010,9 20 0 0,0
15.04.2018 21:00:00 16,2 11,3 13,4 15,9 13,9 8,8 3 2 6 3 ZZW 1011,2 20 0 0,0
15.04.2018 20:00:00 18,1 11,8 15,4 16,4 13,8 8,8 5 3 10 5 NNW 1010,5 30 12 0,0
15.04.2018 19:00:00 20,0 11,4 18,8 16,8 13,6 8,8 4 2 11 6 NNW 1010,3 30 13 0,0
15.04.2018 18:00:00 19,8 13,2 20,5 17,0 13,3 8,8 10 5 12 7 N 1010,3 42 4 0,0
15.04.2018 17:00:00 21,5 10,7 24,1 16,8 13,0 8,8 4 2 12 6 NNW 1010,6 33 44 0,0
15.04.2018 16:00:00 20,7 10,3 24,2 16,1 12,7 8,8 5 3 17 9 NNW 1011,2 33 58 0,0
15.04.2018 15:00:00 20,2 11,3 23,4 15,5 12,4 8,7 10 5 33 18 ZW 1012,0 33 1 0,0
15.04.2018 14:00:00 19,5 10,8 21,0 15,2 12,1 8,7 20 11 36 19 Z 1012,8 33 3 0,0
15.04.2018 13:00:00 20,1 10,5 23,0 14,5 11,7 8,7 18 10 32 18 Z 1013,0 35 52 0,0
15.04.2018 12:00:00 19,3 9,6 23,4 13,4 11,5 8,7 14 8 27 14 Z 1013,6 35 46 0,0
15.04.2018 11:00:00 18,3 9,7 21,3 12,3 11,4 8,7 12 6 20 11 ZZO 1014,1 40 31 0,0
15.04.2018 10:00:00 16,2 8,5 17,8 11,4 11,4 8,7 8 5 15 8 O 1014,9 55 48 0,0
15.04.2018 09:00:00 14,1 7,1 16,3 10,7 11,5 8,7 5 3 8 4 O 1015,6 65 58 0,0
15.04.2018 08:00:00 9,0 6,8 9,8 10,5 11,7 8,7 4 2 8 5 NO 1017,1 65 6 0,0
15.04.2018 07:00:00 8,2 6,3 6,7 10,7 11,9 8,7 8 5 10 6 OZO 1017,4 60 0 0,0
15.04.2018 06:00:00 8,2 6,0 6,6 10,9 12,1 8,6 9 5 10 5 OZO 1017,8 50 0 0,0
15.04.2018 05:00:00 9,0 6,4 6,1 11,2 12,3 8,6 3 2 10 6 OZO 1018,2 50 0 0,0
15.04.2018 04:00:00 9,6 6,0 6,7 11,6 12,5 8,6 9 5 13 7 ZZO 1018,7 50 0 0,0
15.04.2018 03:00:00 10,7 6,0 7,9 12,0 12,7 8,6 10 6 14 8 Z 1019,0 50 0 0,0
15.04.2018 02:00:00 11,8 6,3 8,5 12,4 13,0 8,6 12 7 18 10 Z 1019,4 50 0 0,0
15.04.2018 01:00:00 12,8 6,9 9,7 12,8 13,2 8,5 14 8 19 10 Z 1019,7 50 0 0,0
15.04.2018 00:00:00 12,0 7,2 7,4 13,4 13,4 8,5 2 1 4 2 WZW 1019,8 50 0 0,0
14.04.2018 23:00:00 12,8 7,0 8,8 14,0 13,6 8,5 6 4 15 8 Z 1019,8 50 0 0,0
14.04.2018 22:00:00 13,2 7,2 9,3 14,7 13,7 8,5 12 7 16 9 ZZO 1019,8 50 0 0,0

tt = temperatuur
td = dauwpunt
tt 5cm = temperatuur 5cm
tt -5cm = temperatuur -5cm
tt -20cm = temperatuur -20cm
tt -100cm = temperatuur -100cm
ff = windsnelheid
fx = windstoten
dd = windrichting
ppp = luchtdruk
vv = zicht
sd = Zonneschijnduur
rr = neerslag

Weerstations in de omgeving